{"data":{"norad_id":64802,"epoch":"2026-09-20T13:37:35.958720Z","epoch_age_seconds":121739,"freshness":"FRESH","line1":"1 64802U 25150N   26263.56777730  .00002123  00000+0  18561-3 0  9995","line2":"2 64802  70.0030   3.2536 0003542 268.0556  92.0197 14.98335500 65701","mean_motion":14.983355,"eccentricity":0.0003542,"inclination_deg":70.003,"raan_deg":3.2536,"arg_perigee_deg":268.0556,"mean_anomaly_deg":92.0197,"bstar":0.00018561,"rev_number":6570,"period_min":96.106646341891,"perigee_km":569.57713040249,"apogee_km":574.50063499779,"semimajor_km":6950.1758827001,"source":"CELESTRAK","updated_at":"2026-09-21T09:00:35.444876Z"}}